JST558 YMML-YBBN

Flight info

Callsign JST558
Flight time 1h 59m
Altitude 35000
Route MNG DCT KACEY H66 WHITI/N0460F360 DCT ENLIP
Aircraft A321/M-SDE3FGHIRWY/LB1

Departure

Time 2026-04-30 05:02
Airport Melbourne Airport (YMML)

Arrival

Time 2026-04-30 07:01
Airport Brisbane International Airport (YBBN)
Time Latitude Longitude Altitude Speed Heading
2026-04-30 04:08 -37.67530 144.84791 418 ft 0 kts 171°
2026-04-30 04:50 -37.67510 144.84788 418 ft 4 kts 174°
2026-04-30 04:50 -37.67492 144.84786 418 ft 4 kts 178°
2026-04-30 04:50 -37.67465 144.84786 418 ft 4 kts 186°
2026-04-30 04:51 -37.67440 144.84794 418 ft 4 kts 212°
2026-04-30 04:51 -37.67427 144.84810 418 ft 0 kts 262°
2026-04-30 04:55 -37.67430 144.84788 418 ft 6 kts 262°
2026-04-30 04:55 -37.67437 144.84724 418 ft 9 kts 262°
2026-04-30 04:56 -37.67448 144.84632 418 ft 12 kts 262°
2026-04-30 04:56 -37.67461 144.84516 418 ft 13 kts 261°
2026-04-30 04:56 -37.67472 144.84429 418 ft 11 kts 261°
2026-04-30 04:56 -37.67504 144.84341 418 ft 11 kts 204°
2026-04-30 04:57 -37.67566 144.84337 418 ft 10 kts 173°
2026-04-30 04:57 -37.67647 144.84352 418 ft 13 kts 171°
2026-04-30 04:57 -37.67749 144.84371 418 ft 16 kts 171°
2026-04-30 04:57 -37.67865 144.84393 418 ft 15 kts 171°
2026-04-30 04:58 -37.67967 144.84411 418 ft 14 kts 172°
2026-04-30 04:58 -37.68067 144.84430 418 ft 13 kts 171°
2026-04-30 04:58 -37.68153 144.84446 418 ft 13 kts 171°
2026-04-30 04:58 -37.68247 144.84464 418 ft 12 kts 172°
2026-04-30 04:59 -37.68316 144.84472 418 ft 11 kts 184°
2026-04-30 04:59 -37.68395 144.84429 418 ft 14 kts 214°
2026-04-30 04:59 -37.68470 144.84366 418 ft 10 kts 214°
2026-04-30 04:59 -37.68512 144.84327 418 ft 8 kts 221°
2026-04-30 05:00 -37.68544 144.84273 418 ft 4 kts 248°
2026-04-30 05:00 -37.68547 144.84260 418 ft 0 kts 256°
2026-04-30 05:00 -37.68547 144.84258 418 ft 2 kts 256°
2026-04-30 05:00 -37.68553 144.84189 418 ft 12 kts 275°
2026-04-30 05:01 -37.68510 144.84096 418 ft 14 kts 330°
2026-04-30 05:01 -37.68405 144.84070 418 ft 22 kts 351°
2026-04-30 05:01 -37.68040 144.83999 418 ft 87 kts 352°
2026-04-30 05:01 -37.67240 144.83850 418 ft 144 kts 352°
2026-04-30 05:02 -37.66115 144.83633 617 ft 169 kts 353°
2026-04-30 05:02 -37.65020 144.83390 1462 ft 151 kts 351°
2026-04-30 05:02 -37.64048 144.83143 2187 ft 133 kts 350°
2026-04-30 05:02 -37.63156 144.82917 2599 ft 136 kts 353°
2026-04-30 05:03 -37.62145 144.82934 2796 ft 155 kts
2026-04-30 05:03 -37.61011 144.83066 3005 ft 175 kts 352°
2026-04-30 05:03 -37.59786 144.82603 3298 ft 191 kts 343°
2026-04-30 05:03 -37.58402 144.82585 3550 ft 215 kts 15°
2026-04-30 05:04 -37.56984 144.83424 3917 ft 235 kts 27°
2026-04-30 05:04 -37.55516 144.84474 4380 ft 249 kts 26°
2026-04-30 05:04 -37.53935 144.85485 4937 ft 259 kts 23°
2026-04-30 05:04 -37.52287 144.86447 5636 ft 263 kts 22°
2026-04-30 05:05 -37.50617 144.87428 6369 ft 266 kts 22°
2026-04-30 05:05 -37.48940 144.88444 7077 ft 269 kts 24°
2026-04-30 05:05 -37.47262 144.89474 7753 ft 273 kts 23°
2026-04-30 05:06 -37.43794 144.91614 9104 ft 282 kts 27°
2026-04-30 05:06 -37.42138 144.92969 9771 ft 285 kts 32°
2026-04-30 05:06 -37.40527 144.94459 10403 ft 291 kts 34°
2026-04-30 05:06 -37.38880 144.96023 10836 ft 304 kts 34°
2026-04-30 05:07 -37.37138 144.97657 11057 ft 322 kts 33°
2026-04-30 05:07 -37.35286 144.99370 11273 ft 339 kts 33°
2026-04-30 05:07 -37.33340 145.01154 11627 ft 350 kts 33°
2026-04-30 05:07 -37.31363 145.02968 12182 ft 354 kts 33°
2026-04-30 05:08 -37.29364 145.04801 12778 ft 357 kts 33°
2026-04-30 05:08 -37.27351 145.06650 13365 ft 360 kts 33°
2026-04-30 05:08 -37.25326 145.08511 13948 ft 362 kts 33°
2026-04-30 05:08 -37.23283 145.10382 14502 ft 365 kts 33°
2026-04-30 05:09 -37.21228 145.12266 15050 ft 367 kts 33°
2026-04-30 05:09 -37.19157 145.14161 15601 ft 370 kts 33°
2026-04-30 05:09 -37.17067 145.16069 16139 ft 372 kts 32°
2026-04-30 05:09 -37.14969 145.17985 16658 ft 375 kts 32°
2026-04-30 05:10 -37.12857 145.19914 17167 ft 377 kts 32°
2026-04-30 05:10 -37.10727 145.21862 17662 ft 380 kts 33°
2026-04-30 05:10 -37.08583 145.23820 18147 ft 382 kts 32°
2026-04-30 05:10 -37.06482 145.25814 18610 ft 385 kts 34°
2026-04-30 05:11 -37.04370 145.27900 19069 ft 388 kts 35°
2026-04-30 05:11 -37.02252 145.30018 19514 ft 391 kts 35°
2026-04-30 05:11 -37.00124 145.32154 19953 ft 393 kts 35°
2026-04-30 05:11 -36.97983 145.34295 20392 ft 395 kts 35°
2026-04-30 05:12 -36.95813 145.36447 20800 ft 398 kts 35°
2026-04-30 05:12 -36.93633 145.38603 21206 ft 401 kts 34°
2026-04-30 05:12 -36.91442 145.40769 21608 ft 403 kts 34°
2026-04-30 05:12 -36.89231 145.42958 21996 ft 406 kts 35°
2026-04-30 05:13 -36.87012 145.45160 22376 ft 408 kts 35°
2026-04-30 05:13 -36.84783 145.47369 22761 ft 410 kts 35°
2026-04-30 05:13 -36.82540 145.49588 23121 ft 412 kts 35°
2026-04-30 05:13 -36.80311 145.51787 23469 ft 414 kts 35°
2026-04-30 05:14 -36.78043 145.54024 23825 ft 416 kts 34°
2026-04-30 05:14 -36.75761 145.56275 24167 ft 419 kts 34°
2026-04-30 05:14 -36.73473 145.58531 24489 ft 421 kts 35°
2026-04-30 05:14 -36.71163 145.60804 24817 ft 423 kts 35°
2026-04-30 05:15 -36.68848 145.63081 25133 ft 425 kts 35°
2026-04-30 05:15 -36.66521 145.65365 25450 ft 427 kts 35°
2026-04-30 05:15 -36.64177 145.67658 25751 ft 429 kts 35°
2026-04-30 05:15 -36.61819 145.69954 26046 ft 431 kts 35°
2026-04-30 05:16 -36.59449 145.72256 26340 ft 433 kts 35°
2026-04-30 05:16 -36.57098 145.74537 26623 ft 435 kts 35°
2026-04-30 05:16 -36.54708 145.76855 26905 ft 437 kts 35°
2026-04-30 05:16 -36.52303 145.79181 27180 ft 439 kts 35°
2026-04-30 05:17 -36.49889 145.81511 27452 ft 440 kts 35°
2026-04-30 05:17 -36.47559 145.84011 27708 ft 445 kts 42°
2026-04-30 05:17 -36.45403 145.86781 27975 ft 447 kts 43°
2026-04-30 05:17 -36.43177 145.89493 28216 ft 448 kts 39°
2026-04-30 05:18 -36.40812 145.92003 28466 ft 448 kts 36°
2026-04-30 05:18 -36.38353 145.94384 28703 ft 449 kts 34°
2026-04-30 05:18 -36.35864 145.96749 28933 ft 451 kts 35°
2026-04-30 05:18 -36.33380 145.99175 29036 ft 456 kts 36°
2026-04-30 05:19 -36.28427 146.04262 29122 ft 468 kts 37°
2026-04-30 05:19 -36.23382 146.09431 29539 ft 468 kts 37°
2026-04-30 05:20 -36.20854 146.11966 29786 ft 468 kts 36°
2026-04-30 05:20 -36.18349 146.14469 30003 ft 468 kts 36°
2026-04-30 05:20 -36.15820 146.17005 30236 ft 467 kts 37°
2026-04-30 05:20 -36.13300 146.19545 30454 ft 467 kts 37°
2026-04-30 05:21 -36.10780 146.22092 30666 ft 467 kts 37°
2026-04-30 05:21 -36.08261 146.24636 30881 ft 467 kts 37°
2026-04-30 05:21 -36.05741 146.27173 31084 ft 467 kts 37°
2026-04-30 05:21 -36.03216 146.29703 31289 ft 467 kts 37°
2026-04-30 05:22 -36.00692 146.32227 31485 ft 467 kts 37°
2026-04-30 05:22 -35.98163 146.34756 31683 ft 467 kts 37°
2026-04-30 05:22 -35.95638 146.37284 31865 ft 467 kts 37°
2026-04-30 05:22 -35.93115 146.39812 32052 ft 467 kts 37°
2026-04-30 05:23 -35.90591 146.42338 32227 ft 467 kts 37°
2026-04-30 05:23 -35.88067 146.44861 32395 ft 467 kts 37°
2026-04-30 05:23 -35.85541 146.47379 32555 ft 467 kts 37°
2026-04-30 05:23 -35.83013 146.49897 32721 ft 467 kts 37°
2026-04-30 05:24 -35.80511 146.52389 32883 ft 467 kts 37°
2026-04-30 05:24 -35.77981 146.54908 33046 ft 467 kts 37°
2026-04-30 05:24 -35.75450 146.57428 33207 ft 468 kts 37°
2026-04-30 05:24 -35.72919 146.59945 33372 ft 467 kts 37°
2026-04-30 05:25 -35.70387 146.62460 33533 ft 468 kts 37°
2026-04-30 05:25 -35.67850 146.64976 33698 ft 467 kts 37°
2026-04-30 05:25 -35.65319 146.67484 33849 ft 468 kts 37°
2026-04-30 05:25 -35.62779 146.69998 33995 ft 468 kts 37°
2026-04-30 05:26 -35.60276 146.72474 34147 ft 467 kts 37°
2026-04-30 05:26 -35.57742 146.74980 34277 ft 468 kts 37°
2026-04-30 05:26 -35.55207 146.77484 34404 ft 468 kts 37°
2026-04-30 05:26 -35.52668 146.79989 34540 ft 467 kts 37°
2026-04-30 05:27 -35.50134 146.82488 34655 ft 468 kts 37°
2026-04-30 05:27 -35.47596 146.84990 34762 ft 468 kts 37°
2026-04-30 05:27 -35.45054 146.87494 34867 ft 468 kts 37°
2026-04-30 05:27 -35.42519 146.89988 34970 ft 468 kts 37°
2026-04-30 05:28 -35.39981 146.92482 35084 ft 468 kts 37°
2026-04-30 05:28 -35.37436 146.94982 35191 ft 468 kts 37°
2026-04-30 05:28 -35.34929 146.97442 35307 ft 468 kts 37°
2026-04-30 05:28 -35.32386 146.99932 35409 ft 468 kts 37°
2026-04-30 05:29 -35.29845 147.02421 35533 ft 468 kts 37°
2026-04-30 05:29 -35.27302 147.04914 35649 ft 468 kts 37°
2026-04-30 05:29 -35.22209 147.09894 35862 ft 468 kts 37°
2026-04-30 05:30 -35.17120 147.14860 36188 ft 464 kts 37°
2026-04-30 05:30 -35.14613 147.17307 36443 ft 461 kts 37°
2026-04-30 05:30 -35.12096 147.19757 36432 ft 463 kts 37°
2026-04-30 05:31 -35.07057 147.24657 36416 ft 468 kts 37°
2026-04-30 05:31 -35.01954 147.29618 36412 ft 468 kts 37°
2026-04-30 05:32 -34.96855 147.34565 36409 ft 468 kts 37°
2026-04-30 05:32 -34.91755 147.39499 36393 ft 466 kts 37°
2026-04-30 05:33 -34.86709 147.44375 36355 ft 466 kts 37°
2026-04-30 05:33 -34.81619 147.49288 36359 ft 468 kts 37°
2026-04-30 05:34 -34.76494 147.54222 36412 ft 471 kts 37°
2026-04-30 05:34 -34.71344 147.59177 36448 ft 472 kts 37°
2026-04-30 05:35 -34.66206 147.64116 36453 ft 469 kts 37°
2026-04-30 05:35 -34.61097 147.69011 36441 ft 466 kts 37°
2026-04-30 05:36 -34.56013 147.73880 36401 ft 464 kts 37°
2026-04-30 05:36 -34.50941 147.78724 36360 ft 463 kts 37°
2026-04-30 05:37 -34.45904 147.83531 36358 ft 465 kts 37°
2026-04-30 05:37 -34.40793 147.88402 36370 ft 470 kts 37°
2026-04-30 05:38 -34.35628 147.93307 36409 ft 473 kts 37°
2026-04-30 05:38 -34.31315 147.97402 36453 ft 475 kts 37°
2026-04-30 05:39 -34.25262 148.03144 36448 ft 471 kts 37°
2026-04-30 05:39 -34.20982 148.07200 36442 ft 468 kts 37°
2026-04-30 05:40 -34.15857 148.12044 36413 ft 466 kts 37°
2026-04-30 05:40 -34.10781 148.16827 36371 ft 464 kts 37°
2026-04-30 05:41 -34.05691 148.21629 36357 ft 464 kts 37°
2026-04-30 05:41 -34.00577 148.26444 36358 ft 468 kts 37°
2026-04-30 05:42 -33.95410 148.31293 36389 ft 472 kts 37°
2026-04-30 05:42 -33.90208 148.36168 36442 ft 475 kts 37°
2026-04-30 05:43 -33.85040 148.41007 36431 ft 472 kts 37°
2026-04-30 05:43 -33.79874 148.45841 36430 ft 469 kts 37°
2026-04-30 05:44 -33.74725 148.50643 36389 ft 467 kts 37°
2026-04-30 05:44 -33.69590 148.55428 36349 ft 466 kts 37°
2026-04-30 05:45 -33.64496 148.60174 36351 ft 466 kts 37°
2026-04-30 05:45 -33.59331 148.64967 36354 ft 472 kts 37°
2026-04-30 05:46 -33.54123 148.69801 36392 ft 475 kts 37°
2026-04-30 05:46 -33.48872 148.74664 36429 ft 477 kts 37°
2026-04-30 05:47 -33.43628 148.79514 36428 ft 475 kts 37°
2026-04-30 05:47 -33.38406 148.84334 36419 ft 472 kts 37°
2026-04-30 05:48 -33.33252 148.89084 36380 ft 470 kts 37°
2026-04-30 05:48 -33.28078 148.93848 36340 ft 469 kts 37°
2026-04-30 05:49 -33.22898 148.98609 36328 ft 469 kts 37°
2026-04-30 05:49 -33.17702 149.03376 36329 ft 473 kts 37°
2026-04-30 05:50 -33.12447 149.08188 36371 ft 477 kts 37°
2026-04-30 05:50 -33.07202 149.12982 36432 ft 479 kts 37°
2026-04-30 05:51 -33.01920 149.17812 36432 ft 477 kts 37°
2026-04-30 05:51 -32.96670 149.22600 36437 ft 474 kts 36°
2026-04-30 05:52 -32.91447 149.27355 36403 ft 471 kts 36°
2026-04-30 05:52 -32.86241 149.32088 36362 ft 470 kts 36°
2026-04-30 05:53 -32.81042 149.36807 36349 ft 470 kts 36°
2026-04-30 05:53 -32.75828 149.41534 36350 ft 473 kts 36°
2026-04-30 05:54 -32.70568 149.46301 36377 ft 477 kts 36°
2026-04-30 05:54 -32.65260 149.51087 36438 ft 480 kts 36°
2026-04-30 05:55 -32.59951 149.55880 36433 ft 478 kts 36°
2026-04-30 05:55 -32.54593 149.60414 36431 ft 474 kts 30°
2026-04-30 05:56 -32.48912 149.64319 36411 ft 470 kts 28°
2026-04-30 05:56 -32.43227 149.68120 36372 ft 468 kts 28°
2026-04-30 05:57 -32.37595 149.71986 36345 ft 468 kts 29°
2026-04-30 05:57 -32.31941 149.75859 36350 ft 471 kts 28°
2026-04-30 05:58 -32.26267 149.79709 36367 ft 475 kts 28°
2026-04-30 05:58 -32.20510 149.83614 36427 ft 478 kts 28°
2026-04-30 05:59 -32.14733 149.87538 36429 ft 477 kts 28°
2026-04-30 05:59 -32.08996 149.91424 36431 ft 474 kts 28°
2026-04-30 06:00 -32.03286 149.95281 36404 ft 471 kts 28°
2026-04-30 06:00 -31.97617 149.99114 36361 ft 469 kts 28°
2026-04-30 06:01 -31.91993 150.02903 36343 ft 468 kts 28°
2026-04-30 06:01 -31.86323 150.06717 36346 ft 471 kts 28°
2026-04-30 06:02 -31.80597 150.10571 36369 ft 476 kts 28°
2026-04-30 06:02 -31.74823 150.14448 36432 ft 479 kts 28°
2026-04-30 06:03 -31.69041 150.18324 36428 ft 477 kts 28°
2026-04-30 06:03 -31.63296 150.22174 36429 ft 474 kts 28°
2026-04-30 06:04 -31.57579 150.25992 36399 ft 472 kts 28°
2026-04-30 06:05 -31.49081 150.31661 36337 ft 470 kts 28°
2026-04-30 06:05 -31.43405 150.35444 36337 ft 470 kts 28°
2026-04-30 06:06 -31.37685 150.39247 36350 ft 475 kts 28°
2026-04-30 06:06 -31.31906 150.43085 36405 ft 479 kts 28°
2026-04-30 06:07 -31.26123 150.46923 36423 ft 480 kts 27°
2026-04-30 06:07 -31.20325 150.50762 36422 ft 477 kts 27°
2026-04-30 06:08 -31.14563 150.54575 36409 ft 475 kts 27°
2026-04-30 06:08 -31.08824 150.58365 36367 ft 472 kts 27°
2026-04-30 06:09 -31.03099 150.62140 36331 ft 472 kts 27°
2026-04-30 06:09 -30.97373 150.65914 36338 ft 474 kts 27°
2026-04-30 06:10 -30.91624 150.69693 36367 ft 480 kts 27°
2026-04-30 06:10 -30.85790 150.73523 36427 ft 482 kts 27°
2026-04-30 06:11 -30.79948 150.77356 36421 ft 480 kts 27°
2026-04-30 06:11 -30.74145 150.81162 36423 ft 478 kts 27°
2026-04-30 06:12 -30.68363 150.84942 36386 ft 475 kts 27°
2026-04-30 06:12 -30.62604 150.88700 36345 ft 473 kts 27°
2026-04-30 06:13 -30.56892 150.92426 36337 ft 474 kts 27°
2026-04-30 06:13 -30.51107 150.96192 36350 ft 480 kts 27°
2026-04-30 06:14 -30.45257 151.00000 36409 ft 483 kts 27°
2026-04-30 06:14 -30.39392 151.03811 36430 ft 482 kts 27°
2026-04-30 06:15 -30.33558 151.07593 36428 ft 479 kts 27°
2026-04-30 06:15 -30.27747 151.11359 36407 ft 477 kts 27°
2026-04-30 06:16 -30.21976 151.15089 36365 ft 474 kts 27°
2026-04-30 06:16 -30.16252 151.18789 36335 ft 473 kts 27°
2026-04-30 06:17 -30.10504 151.22497 36340 ft 474 kts 26°
2026-04-30 06:17 -30.04697 151.26235 36353 ft 480 kts 26°
2026-04-30 06:18 -29.98831 151.30009 36413 ft 484 kts 26°
2026-04-30 06:18 -29.92991 151.33765 36426 ft 482 kts 26°
2026-04-30 06:19 -29.87139 151.37521 36426 ft 479 kts 26°
2026-04-30 06:19 -29.81323 151.41248 36401 ft 477 kts 26°
2026-04-30 06:20 -29.75548 151.44945 36357 ft 473 kts 26°
2026-04-30 06:20 -29.69812 151.48609 36351 ft 472 kts 26°
2026-04-30 06:21 -29.64033 151.52289 36381 ft 478 kts 26°
2026-04-30 06:21 -29.58223 151.55996 36383 ft 482 kts 26°
2026-04-30 06:22 -29.52361 151.59733 36389 ft 482 kts 26°
2026-04-30 06:22 -29.46497 151.63457 36389 ft 481 kts 26°
2026-04-30 06:23 -29.40630 151.67180 36396 ft 481 kts 26°
2026-04-30 06:23 -29.34766 151.70902 36387 ft 481 kts 26°
2026-04-30 06:24 -29.28900 151.74615 36349 ft 482 kts 26°
2026-04-30 06:24 -29.23027 151.78327 36345 ft 482 kts 26°
2026-04-30 06:25 -29.17199 151.82011 36317 ft 482 kts 26°
2026-04-30 06:25 -29.11337 151.85704 36319 ft 480 kts 26°
2026-04-30 06:26 -29.05498 151.89383 36322 ft 477 kts 26°
2026-04-30 06:26 -28.99698 151.93034 36313 ft 474 kts 26°
2026-04-30 06:27 -28.94847 151.96079 36349 ft 477 kts 26°
2026-04-30 06:27 -28.89031 151.99724 36362 ft 483 kts 26°
2026-04-30 06:28 -28.83134 152.03423 36359 ft 484 kts 26°
2026-04-30 06:28 -28.77227 152.07123 36342 ft 483 kts 26°
2026-04-30 06:28 -28.74291 152.08958 36083 ft 480 kts 26°
2026-04-30 06:29 -28.71386 152.10774 35738 ft 472 kts 25°
2026-04-30 06:29 -28.68514 152.12567 35501 ft 471 kts 25°
2026-04-30 06:29 -28.65635 152.14363 35263 ft 471 kts 25°
2026-04-30 06:29 -28.62757 152.16159 35017 ft 472 kts 25°
2026-04-30 06:30 -28.59879 152.17952 34775 ft 472 kts 25°
2026-04-30 06:30 -28.57002 152.19742 34534 ft 472 kts 25°
2026-04-30 06:30 -28.54121 152.21537 34289 ft 472 kts 25°
2026-04-30 06:30 -28.51241 152.23329 34043 ft 472 kts 25°
2026-04-30 06:31 -28.48362 152.25118 33798 ft 472 kts 25°
2026-04-30 06:31 -28.45479 152.26909 33549 ft 470 kts 25°
2026-04-30 06:31 -28.42618 152.28687 33302 ft 468 kts 25°
2026-04-30 06:31 -28.39766 152.30458 33055 ft 466 kts 25°
2026-04-30 06:32 -28.36929 152.32216 32808 ft 463 kts 25°
2026-04-30 06:32 -28.34099 152.33971 32561 ft 461 kts 25°
2026-04-30 06:32 -28.31287 152.35713 32314 ft 459 kts 26°
2026-04-30 06:32 -28.28492 152.37443 32066 ft 457 kts 26°
2026-04-30 06:33 -28.25707 152.39165 31819 ft 454 kts 26°
2026-04-30 06:33 -28.22940 152.40874 31573 ft 452 kts 26°
2026-04-30 06:33 -28.20220 152.42557 31333 ft 450 kts 26°
2026-04-30 06:33 -28.17479 152.44253 31084 ft 447 kts 26°
2026-04-30 06:34 -28.14751 152.45937 30838 ft 445 kts 26°
2026-04-30 06:34 -28.12043 152.47607 30591 ft 443 kts 26°
2026-04-30 06:34 -28.09342 152.49271 30344 ft 440 kts 26°
2026-04-30 06:34 -28.06650 152.50929 30096 ft 438 kts 26°
2026-04-30 06:35 -28.03980 152.52577 29850 ft 436 kts 27°
2026-04-30 06:35 -28.01473 152.54509 29578 ft 437 kts 39°
2026-04-30 06:35 -27.99393 152.57016 29309 ft 438 kts 53°
2026-04-30 06:35 -27.97931 152.60041 29055 ft 441 kts 68°
2026-04-30 06:36 -27.97188 152.63392 28807 ft 440 kts 83°
2026-04-30 06:36 -27.97177 152.66797 28565 ft 438 kts 97°
2026-04-30 06:36 -27.97813 152.70166 28348 ft 438 kts 106°
2026-04-30 06:36 -27.98652 152.73473 28117 ft 435 kts 107°
2026-04-30 06:37 -27.99514 152.76753 27871 ft 434 kts 107°
2026-04-30 06:37 -28.00344 152.80034 27624 ft 432 kts 106°
2026-04-30 06:37 -28.01121 152.83293 27371 ft 427 kts 105°
2026-04-30 06:37 -28.01869 152.86546 27128 ft 426 kts 105°
2026-04-30 06:38 -28.02616 152.89782 26880 ft 424 kts 105°
2026-04-30 06:38 -28.03375 152.93003 26633 ft 422 kts 105°
2026-04-30 06:38 -28.04132 152.96165 26389 ft 421 kts 106°
2026-04-30 06:38 -28.04899 152.99353 26140 ft 418 kts 106°
2026-04-30 06:39 -28.05654 153.02523 25895 ft 417 kts 105°
2026-04-30 06:39 -28.06404 153.05698 25647 ft 416 kts 105°
2026-04-30 06:39 -28.07146 153.08852 25399 ft 414 kts 105°
2026-04-30 06:39 -28.07891 153.12011 25151 ft 413 kts 105°
2026-04-30 06:40 -28.08630 153.15145 24903 ft 411 kts 105°
2026-04-30 06:40 -28.09366 153.18263 24655 ft 409 kts 105°
2026-04-30 06:40 -28.10098 153.21369 24408 ft 408 kts 105°
2026-04-30 06:40 -28.10827 153.24471 24161 ft 407 kts 105°
2026-04-30 06:41 -28.11552 153.27557 23912 ft 405 kts 105°
2026-04-30 06:41 -28.12265 153.30594 23667 ft 402 kts 105°
2026-04-30 06:41 -28.12982 153.33652 23419 ft 400 kts 105°
2026-04-30 06:41 -28.13660 153.36705 23164 ft 398 kts 101°
2026-04-30 06:42 -28.13809 153.39814 22822 ft 397 kts 84°
2026-04-30 06:42 -28.13086 153.42803 22343 ft 393 kts 64°
2026-04-30 06:42 -28.11513 153.45300 21853 ft 389 kts 44°
2026-04-30 06:42 -28.09322 153.47057 21366 ft 386 kts 25°
2026-04-30 06:43 -28.06782 153.47943 20884 ft 382 kts
2026-04-30 06:43 -28.04145 153.47923 20424 ft 378 kts 352°
2026-04-30 06:43 -28.01577 153.47382 20082 ft 371 kts 348°
2026-04-30 06:43 -27.99080 153.46772 19827 ft 360 kts 348°
2026-04-30 06:44 -27.96678 153.46199 19636 ft 345 kts 349°
2026-04-30 06:44 -27.94393 153.45701 19373 ft 334 kts 350°
2026-04-30 06:44 -27.92087 153.45236 18926 ft 332 kts 351°
2026-04-30 06:44 -27.89846 153.44794 18490 ft 330 kts 351°
2026-04-30 06:45 -27.87589 153.44340 18061 ft 329 kts 351°
2026-04-30 06:45 -27.85345 153.43878 17635 ft 327 kts 351°
2026-04-30 06:45 -27.83118 153.43416 17220 ft 325 kts 351°
2026-04-30 06:45 -27.80902 153.42956 16807 ft 322 kts 351°
2026-04-30 06:46 -27.78698 153.42500 16399 ft 320 kts 351°
2026-04-30 06:46 -27.76516 153.42050 15996 ft 318 kts 351°
2026-04-30 06:46 -27.74339 153.41602 15591 ft 316 kts 351°
2026-04-30 06:46 -27.72180 153.41158 15189 ft 314 kts 351°
2026-04-30 06:47 -27.70039 153.40719 14791 ft 312 kts 352°
2026-04-30 06:47 -27.67913 153.40284 14361 ft 309 kts 352°
2026-04-30 06:47 -27.65807 153.39852 13831 ft 306 kts 351°
2026-04-30 06:47 -27.63761 153.39489 13307 ft 303 kts 358°
2026-04-30 06:48 -27.61698 153.39467 12794 ft 299 kts
2026-04-30 06:48 -27.59629 153.39569 12276 ft 296 kts
2026-04-30 06:48 -27.57583 153.39705 11761 ft 293 kts
2026-04-30 06:48 -27.55547 153.39830 11233 ft 292 kts
2026-04-30 06:49 -27.53512 153.39933 10902 ft 292 kts
2026-04-30 06:49 -27.51485 153.40019 10648 ft 292 kts
2026-04-30 06:49 -27.49459 153.40104 10402 ft 291 kts
2026-04-30 06:49 -27.47432 153.40194 10159 ft 291 kts
2026-04-30 06:50 -27.45410 153.40289 9911 ft 290 kts
2026-04-30 06:50 -27.43390 153.40383 9666 ft 290 kts
2026-04-30 06:50 -27.41378 153.40475 9416 ft 289 kts
2026-04-30 06:50 -27.39396 153.40564 9169 ft 289 kts
2026-04-30 06:51 -27.37391 153.40654 8995 ft 288 kts
2026-04-30 06:51 -27.35387 153.40750 9068 ft 286 kts
2026-04-30 06:51 -27.33425 153.40843 8949 ft 279 kts
2026-04-30 06:51 -27.31489 153.40930 8470 ft 282 kts
2026-04-30 06:52 -27.29476 153.41024 7648 ft 296 kts
2026-04-30 06:52 -27.27351 153.41129 6591 ft 317 kts
2026-04-30 06:52 -27.25095 153.41256 5745 ft 328 kts
2026-04-30 06:52 -27.22819 153.41379 5227 ft 326 kts
2026-04-30 06:53 -27.20583 153.41405 4999 ft 316 kts 357°
2026-04-30 06:53 -27.18541 153.40675 4960 ft 304 kts 331°
2026-04-30 06:53 -27.16910 153.39269 4970 ft 287 kts 319°
2026-04-30 06:53 -27.15492 153.37755 4997 ft 280 kts 317°
2026-04-30 06:54 -27.14062 153.36270 5007 ft 280 kts 319°
2026-04-30 06:54 -27.12887 153.34543 4917 ft 280 kts 292°
2026-04-30 06:54 -27.12548 153.32433 4521 ft 274 kts 261°
2026-04-30 06:54 -27.13169 153.30472 4083 ft 264 kts 231°
2026-04-30 06:55 -27.14294 153.28857 4070 ft 260 kts 225°
2026-04-30 06:55 -27.15382 153.27333 4067 ft 248 kts 230°
2026-04-30 06:55 -27.16324 153.25769 4014 ft 232 kts 224°
2026-04-30 06:55 -27.17533 153.24786 4084 ft 206 kts 200°
2026-04-30 06:56 -27.18768 153.24103 4048 ft 189 kts 200°
2026-04-30 06:56 -27.19909 153.23453 3886 ft 180 kts 200°
2026-04-30 06:56 -27.20996 153.22827 3644 ft 169 kts 200°
2026-04-30 06:56 -27.22009 153.22249 3434 ft 159 kts 199°
2026-04-30 06:57 -27.22969 153.21708 3161 ft 149 kts 198°
2026-04-30 06:57 -27.23887 153.21188 3014 ft 149 kts 199°
2026-04-30 06:57 -27.24789 153.20669 2792 ft 143 kts 199°
2026-04-30 06:57 -27.25694 153.20153 2637 ft 147 kts 199°
2026-04-30 06:58 -27.26602 153.19635 2430 ft 146 kts 199°
2026-04-30 06:58 -27.27510 153.19118 2228 ft 146 kts 200°
2026-04-30 06:58 -27.28415 153.18602 2027 ft 146 kts 200°
2026-04-30 06:58 -27.29320 153.18085 1829 ft 146 kts 200°
2026-04-30 06:59 -27.30209 153.17576 1635 ft 145 kts 201°
2026-04-30 06:59 -27.31110 153.17062 1439 ft 145 kts 202°
2026-04-30 06:59 -27.32012 153.16549 1242 ft 145 kts 205°
2026-04-30 06:59 -27.32909 153.16036 1051 ft 144 kts 205°
2026-04-30 07:00 -27.33804 153.15525 859 ft 144 kts 205°
2026-04-30 07:00 -27.34695 153.15015 667 ft 144 kts 205°
2026-04-30 07:00 -27.35584 153.14507 479 ft 143 kts 205°
2026-04-30 07:00 -27.36471 153.14001 285 ft 142 kts 205°
2026-04-30 07:01 -27.37354 153.13496 98 ft 142 kts 205°
2026-04-30 07:01 -27.38213 153.13000 27 ft 130 kts 205°
2026-04-30 07:01 -27.38856 153.12637 27 ft 79 kts 207°
2026-04-30 07:01 -27.39247 153.12414 28 ft 48 kts 206°
2026-04-30 07:02 -27.39469 153.12281 28 ft 26 kts 206°
2026-04-30 07:02 -27.39578 153.12182 27 ft 14 kts 250°
2026-04-30 07:02 -27.39575 153.12107 28 ft 11 kts 290°
2026-04-30 07:02 -27.39540 153.12022 28 ft 11 kts 296°
2026-04-30 07:03 -27.39520 153.11974 28 ft 2 kts 296°
2026-04-30 07:03 -27.39502 153.11946 28 ft 7 kts 319°
2026-04-30 07:03 -27.39439 153.11939 28 ft 12 kts 21°
2026-04-30 07:03 -27.39347 153.11992 28 ft 17 kts 28°
2026-04-30 07:04 -27.39247 153.12050 28 ft 12 kts 26°
2026-04-30 07:04 -27.39169 153.12092 28 ft 4 kts 27°
2026-04-30 07:04 -27.39160 153.12098 28 ft 0 kts 27°
2026-04-30 07:05 -27.39083 153.12142 28 ft 11 kts 27°
2026-04-30 07:05 -27.39005 153.12187 28 ft 15 kts 27°
2026-04-30 07:05 -27.38910 153.12242 28 ft 18 kts 27°
2026-04-30 07:06 -27.38832 153.12286 28 ft 5 kts 26°
2026-04-30 07:06 -27.38828 153.12288 28 ft 2 kts 26°
2026-04-30 07:06 -27.38787 153.12311 28 ft 10 kts 27°
2026-04-30 07:06 -27.38732 153.12343 28 ft 6 kts 27°
2026-04-30 07:07 -27.38689 153.12327 28 ft 8 kts 310°
2026-04-30 07:07 -27.38646 153.12315 28 ft 8 kts
2026-04-30 07:07 -27.38605 153.12331 28 ft 6 kts 25°
2026-04-30 07:07 -27.38587 153.12341 28 ft 0 kts 26°
2026-04-30 07:08 -27.38584 153.12343 28 ft 2 kts 26°
2026-04-30 07:08 -27.38552 153.12355 28 ft 7 kts
2026-04-30 07:08 -27.38534 153.12355 28 ft 1 kts 336°
2026-04-30 07:08 -27.38520 153.12332 28 ft 5 kts 287°
2026-04-30 07:09 -27.38536 153.12286 28 ft 4 kts 240°
2026-04-30 07:09 -27.38548 153.12262 28 ft 4 kts 239°
2026-04-30 07:09 -27.38560 153.12240 28 ft 2 kts 239°
2026-04-30 07:09 -27.38563 153.12234 28 ft 0 kts 239°
2026-04-30 07:10 -27.38563 153.12233 28 ft 0 kts 239°